Temp
88 90 82 83 84 84 84 84 84 84 84 83 83 83 84 84 84 84 84 84 84 84 84 84 84 84 84 84 84 84 84 84 84 83 83 83 82 83 83 84 85 90 83
93 92 82 83 84 83 84 84 84 84 84 84 83 84 84 84 84 84 84 84 84 84 84 84 84 84 84 84 84 84 84 83 84 84 84 83 83 83 83 84 86 88 84
93 93 86 82 84 84 83 84 84 84 84 84 84 84 83 84 84 84 84 84 84 84 84 84 84 84 84 84 84 84 83 83 83 83 85 90 90 84 84 84 83 83 84
95 94 92 82 83 83 83 83 84 84 84 84 84 84 83 84 84 84 85 84 84 85 85 85 84 84 84 83 84 84 83 83 83 84 95 94 95 83 84 83 83 83 83
95 96 90 83 83 83 83 83 83 83 84 83 83 83 84 83 84 84 85 84 84 84 84 84 84 84 84 84 83 84 84 83 84 88 93 96 97 86 83 83 83 83 83
95 96 85 83 84 84 84 83 83 83 84 83 84 84 84 84 84 84 85 84 84 84 84 84 84 84 84 84 84 84 83 84 83 96 95 92 98 84 84 84 84 84 82
95 96 91 83 84 84 83 83 83 83 83 84 84 83 84 84 84 85 84 84 84 84 84 84 85 85 84 84 84 84 84 84 93 95 94 95 93 83 84 84 83 83 82
96 96 92 84 83 83 83 83 83 83 83 84 84 84 84 84 84 84 84 84 84 84 84 84 84 84 84 84 84 83 83 84 92 96 95 95 82 83 84 84 83 83 83
97 96 94 93 88 84 83 84 83 84 84 84 84 84 84 84 84 84 84 84 84 84 84 84 84 84 84 84 84 84 84 84 95 100 98 97 80 82 84 83 83 83 82
96 97 95 91 93 92 91 84 83 83 83 84 84 84 84 84 84 84 83 83 84 84 84 84 85 84 84 84 84 84 84 84 100 98 99 97 81 82 84 83 83 83 83
93 95 96 95 93 92 93 89 84 83 84 84 85 84 85 95 93 90 88 83 84 84 85 85 85 84 83 84 84 84 84 99 98 99 103 81 81 82 84 83 83 83 82
91 94 95 97 95 94 96 91 92 93 94 93 92 89 94 96 96 95 89 83 84 84 83 84 84 83 84 101 99 86 97 100 99 103 101 81 81 82 83 83 82 82 82
93 94 95 96 95 97 96 95 95 96 95 93 89 89 93 94 93 95 97 96 95 85 97 93 95 97 95 98 101 103 102 100 103 103 91 81 81 82 83 83 82 82 82
93 93 95 94 92 94 95 94 95 95 94 94 93 89 90 91 92 92 96 96 91 96 94 94 98 96 96 97 98 100 100 104 105 104 94 82 81 82 83 83 82 82 82
92 92 94 92 89 91 90 92 92 93 93 95 93 90 92 93 91 93 95 95 95 97 96 93 95 95 94 97 99 100 101 103 103 103 102 83 81 81 82 83 83 82 82
93 93 95 91 89 90 88 88 90 93 93 93 94 94 89 93 91 93 92 94 95 95 96 95 94 94 95 96 99 100 99 102 101 100 104 97 82 81 82 82 83 83 82
94 95 93 91 91 88 87 87 90 93 95 94 94 92 90 91 90 89 93 93 95 95 90 92 92 95 95 99 95 98 98 99 101 97 99 101 97 81 81 82 82 82 82
95 92 92 94 93 89 88 88 92 93 94 94 95 95 91 90 90 89 93 95 97 94 95 94 93 92 94 96 96 98 98 98 96 97 98 98 100 102 84 81 81 82 82
94 91 90 91 93 91 88 90 90 91 93 95 96 96 93 92 92 90 94 96 92 94 95 94 95 91 93 93 95 98 96 95 96 99 93 93 95 96 100 82 81 81 82
95 93 91 91 90 89 90 89 92 94 94 96 95 96 95 95 92 90 94 92 91 93 93 92 86 88 91 93 96 96 95 97 96 96 95 98 95 94 97 95 93 91 81
96 92 90 89 88 89 89 89 90 91 93 95 95 93 93 94 93 90 94 94 92 90 86 83 82 80 81 89 88 93 93 96 95 95 96 92 87 79 84 87 92 92 84
95 93 90 90 88 87 90 90 93 93 96 96 96 94 92 92 92 91 91 92 89 85 81 80 77 72 72 75 75 83 83 88 91 91 91 92 88 86 84 77 78 82 76
94 92 91 89 89 88 90 91 90 92 92 92 92 93 93 90 90 90 89 88 82 86 86 79 72 71 69 71 73 70 72 77 84 86 84 87 86 88 87 82 76 75 72
96 96 93 86 86 89 88 89 86 89 89 94 94 91 84 84 84 85 83 81 81 76 78 73 74 70 72 70 78 82 75 79 79 78 82 83 85 85 85 87 84 80 76
98 97 94 87 88 90 88 88 89 85 92 93 90 78 77 79 80 79 78 79 74 76 75 73 72 71 74 72 75 80 76 83 73 76 79 77 82 83 83 80 86 86 86
93 94 93 85 82 84 87 85 84 86 86 82 82 77 84 84 84 79 79 77 71 71 72 73 75 72 68 76 81 81 79 73 71 80 81 79 80 81 84 85 79 81 87
MSLP
1014.35 1014.80 1015.84 1016.07 1016.17 1016.27 1016.33 1016.37 1016.50 1016.70 1016.86 1017.02 1017.19 1017.32 1017.44 1017.56 1017.71 1017.81 1017.83 1017.89 1017.98 1017.99 1018.03 1018.09 1018.22 1018.34 1018.40 1018.53 1018.65 1018.66 1018.64 1018.59 1018.69 1018.65 1018.83 1019.03 1018.93 1018.83 1018.92 1018.93 1018.96 1018.68 1019.60
1013.96 1014.76 1016.05 1016.12 1016.26 1016.44 1016.46 1016.62 1016.80 1017.09 1017.14 1017.29 1017.39 1017.53 1017.69 1017.83 1017.88 1017.93 1018.11 1018.21 1018.23 1018.28 1018.27 1018.37 1018.49 1018.54 1018.41 1018.71 1018.83 1018.86 1018.88 1018.86 1018.91 1018.84 1018.92 1019.23 1019.24 1019.10 1019.17 1019.09 1019.10 1019.34 1019.81
1014.04 1014.85 1015.87 1016.30 1016.31 1016.54 1016.67 1016.76 1016.99 1017.20 1017.34 1017.50 1017.67 1017.72 1017.90 1018.06 1018.06 1018.11 1018.22 1018.29 1018.35 1018.42 1018.51 1018.55 1018.69 1018.73 1018.78 1018.91 1019.06 1019.09 1019.19 1019.16 1019.12 1018.91 1018.83 1018.31 1019.05 1019.40 1019.39 1019.59 1019.25 1019.69 1019.86
1013.87 1014.73 1015.31 1016.31 1016.44 1016.66 1016.78 1016.98 1017.20 1017.35 1017.48 1017.69 1017.78 1017.93 1018.12 1018.14 1018.20 1018.32 1018.35 1018.45 1018.62 1018.70 1018.77 1018.84 1018.92 1019.01 1019.10 1019.18 1019.25 1019.29 1019.38 1019.38 1019.24 1018.80 1017.77 1017.89 1018.41 1019.70 1019.67 1019.74 1019.86 1020.06 1020.11
1013.98 1014.38 1015.56 1016.42 1016.56 1016.75 1016.98 1017.18 1017.44 1017.66 1017.72 1017.91 1018.13 1018.23 1018.24 1018.31 1018.36 1018.44 1018.56 1018.74 1018.85 1018.93 1018.98 1019.06 1019.18 1019.24 1019.31 1019.35 1019.43 1019.45 1019.51 1019.49 1019.29 1018.54 1018.32 1017.68 1017.83 1019.64 1019.89 1020.06 1020.22 1020.27 1020.25
1014.13 1014.48 1016.17 1016.45 1016.65 1016.96 1017.30 1017.59 1017.72 1017.82 1017.91 1018.02 1018.07 1018.26 1018.40 1018.44 1018.50 1018.63 1018.78 1018.90 1018.96 1019.07 1019.17 1019.24 1019.29 1019.35 1019.39 1019.43 1019.52 1019.60 1019.60 1019.51 1019.14 1018.12 1018.08 1018.48 1017.77 1019.71 1019.94 1020.01 1020.18 1020.40 1020.54
1014.33 1014.60 1015.86 1016.55 1016.85 1017.14 1017.44 1017.68 1017.89 1017.95 1018.08 1018.12 1018.20 1018.46 1018.53 1018.67 1018.74 1018.83 1018.97 1019.07 1019.17 1019.28 1019.30 1019.35 1019.38 1019.44 1019.44 1019.43 1019.44 1019.46 1019.47 1019.36 1018.27 1018.28 1018.48 1018.18 1018.65 1019.75 1019.97 1020.24 1020.52 1020.70 1020.74
1014.14 1014.65 1015.83 1016.83 1017.05 1017.31 1017.45 1017.68 1017.93 1018.07 1018.23 1018.23 1018.36 1018.47 1018.68 1018.83 1018.94 1019.06 1019.17 1019.26 1019.38 1019.50 1019.52 1019.50 1019.47 1019.44 1019.37 1019.32 1019.36 1019.40 1019.39 1019.26 1018.37 1018.04 1018.32 1018.43 1019.43 1019.92 1020.07 1020.19 1020.37 1020.64 1020.84
1014.22 1014.63 1015.39 1016.19 1016.87 1017.31 1017.48 1017.76 1017.94 1018.03 1018.25 1018.28 1018.49 1018.67 1018.85 1018.97 1019.10 1019.19 1019.32 1019.41 1019.49 1019.59 1019.68 1019.70 1019.63 1019.48 1019.35 1019.29 1019.29 1019.25 1019.24 1019.20 1018.08 1017.56 1017.71 1018.02 1019.44 1019.82 1020.00 1020.32 1020.45 1020.61 1020.75
1014.46 1014.57 1015.04 1015.88 1016.26 1016.61 1017.15 1017.80 1017.97 1018.18 1018.35 1018.46 1018.61 1018.84 1018.96 1019.04 1019.16 1019.28 1019.45 1019.48 1019.56 1019.62 1019.64 1019.61 1019.56 1019.46 1019.32 1019.19 1019.11 1019.09 1019.03 1018.81 1017.40 1017.48 1017.67 1017.85 1019.14 1019.69 1019.84 1020.08 1020.38 1020.60 1020.80
1014.66 1014.73 1014.91 1015.62 1015.98 1016.35 1016.50 1017.40 1017.91 1018.10 1018.30 1018.48 1018.57 1018.82 1018.94 1018.13 1018.55 1018.90 1018.88 1019.36 1019.50 1019.56 1019.59 1019.53 1019.46 1019.41 1019.30 1018.88 1018.82 1018.84 1018.86 1017.33 1017.66 1017.41 1017.06 1018.47 1019.16 1019.60 1019.76 1019.98 1020.22 1020.44 1020.67
1014.27 1014.63 1014.98 1015.11 1015.67 1016.11 1016.17 1017.02 1017.20 1017.38 1017.54 1017.81 1018.06 1018.46 1018.06 1017.75 1017.81 1018.03 1018.69 1019.35 1019.42 1019.42 1019.40 1019.34 1019.31 1019.26 1019.01 1017.34 1017.43 1018.33 1017.43 1017.18 1017.24 1017.13 1017.28 1018.61 1019.05 1019.38 1019.67 1019.87 1020.01 1020.13 1020.33
1013.99 1014.49 1015.02 1015.14 1015.58 1015.64 1015.79 1016.42 1016.66 1016.76 1017.03 1017.70 1018.25 1018.41 1018.08 1018.04 1018.25 1018.26 1018.03 1018.26 1018.47 1019.17 1018.39 1018.58 1018.45 1018.10 1017.87 1017.56 1017.24 1016.87 1017.04 1017.03 1016.56 1016.73 1017.61 1018.51 1018.91 1019.15 1019.34 1019.61 1019.83 1020.00 1020.16
1013.69 1014.24 1014.82 1015.25 1015.93 1015.87 1016.05 1016.45 1016.34 1016.47 1017.13 1017.35 1017.77 1018.46 1018.31 1018.40 1018.28 1018.31 1018.23 1018.34 1018.83 1018.72 1018.58 1018.56 1018.12 1018.17 1017.79 1017.68 1017.29 1017.02 1016.69 1016.47 1016.44 1016.56 1017.18 1018.27 1018.61 1018.84 1019.04 1019.20 1019.45 1019.75 1019.98
1013.62 1014.21 1014.57 1015.28 1015.86 1016.06 1016.65 1016.68 1016.76 1016.80 1017.28 1017.30 1017.75 1018.33 1018.32 1018.17 1018.29 1018.42 1018.25 1018.29 1018.35 1018.20 1018.27 1018.41 1018.14 1018.07 1017.97 1017.45 1017.17 1017.00 1016.53 1016.38 1016.47 1016.66 1016.68 1018.07 1018.66 1018.88 1018.84 1018.89 1019.13 1019.35 1019.62
1013.29 1013.89 1014.50 1015.37 1016.07 1016.30 1016.72 1017.09 1017.24 1017.10 1017.26 1017.57 1017.59 1017.78 1018.45 1018.12 1018.16 1018.06 1018.29 1018.18 1018.17 1018.21 1018.13 1018.10 1018.06 1017.96 1017.60 1017.48 1016.95 1016.95 1016.91 1016.60 1016.61 1016.65 1016.31 1016.83 1017.98 1018.55 1018.81 1018.82 1018.88 1019.10 1019.27
1013.02 1013.53 1014.20 1015.17 1015.72 1016.44 1016.82 1017.13 1017.14 1016.97 1016.99 1017.21 1017.33 1017.83 1018.20 1018.29 1018.28 1018.41 1018.00 1018.05 1017.91 1018.12 1018.64 1018.36 1018.30 1017.79 1017.59 1016.90 1017.10 1016.86 1016.83 1016.79 1016.62 1016.88 1016.67 1016.32 1016.58 1017.67 1018.16 1018.47 1018.67 1018.78 1018.98
1012.50 1013.38 1014.13 1014.59 1015.10 1015.99 1016.60 1016.89 1016.67 1016.67 1016.61 1016.87 1017.08 1017.28 1017.90 1018.12 1018.35 1018.41 1017.85 1017.71 1017.94 1018.20 1017.97 1017.96 1017.99 1017.86 1017.61 1017.09 1016.93 1016.71 1016.83 1016.68 1016.82 1016.71 1016.59 1016.70 1016.21 1016.06 1017.42 1017.93 1018.27 1018.57 1018.93
1012.40 1013.24 1014.05 1014.59 1014.79 1015.36 1016.03 1016.34 1016.57 1016.59 1016.61 1016.40 1016.53 1016.58 1017.08 1017.62 1017.88 1018.17 1017.75 1017.63 1018.29 1017.95 1017.94 1018.01 1018.00 1018.21 1017.75 1017.65 1017.08 1016.61 1016.99 1016.88 1016.71 1016.46 1017.09 1017.12 1016.90 1016.67 1016.01 1017.09 1017.87 1018.21 1018.55
1012.06 1012.95 1013.68 1014.34 1014.76 1015.37 1015.75 1016.01 1015.91 1016.03 1016.18 1016.18 1016.38 1016.46 1016.69 1016.93 1017.48 1017.81 1017.48 1017.70 1018.01 1017.81 1017.94 1018.15 1018.70 1018.59 1018.32 1017.89 1017.31 1016.76 1017.00 1016.99 1016.91 1016.90 1016.95 1016.76 1016.81 1016.70 1016.31 1016.27 1016.76 1017.22 1018.12
1011.46 1012.44 1013.23 1013.88 1014.59 1015.16 1015.36 1015.46 1015.47 1015.46 1015.65 1015.77 1016.00 1016.49 1016.81 1016.91 1017.09 1017.51 1017.14 1017.12 1017.54 1017.98 1018.50 1019.13 1019.29 1019.48 1019.01 1018.69 1018.11 1016.85 1016.79 1017.22 1017.20 1017.08 1016.86 1017.36 1017.99 1018.56 1017.79 1017.58 1016.67 1016.36 1017.84
1010.78 1011.87 1012.71 1013.34 1014.18 1014.79 1014.93 1015.06 1014.96 1015.06 1015.09 1015.10 1015.41 1015.91 1016.50 1016.69 1016.94 1017.13 1017.16 1017.03 1017.34 1018.13 1019.08 1019.28 1019.57 1019.64 1019.75 1019.86 1019.68 1018.49 1016.85 1016.70 1017.21 1017.68 1017.63 1017.50 1017.99 1018.25 1018.43 1018.96 1018.47 1017.87 1018.48
1010.14 1011.06 1011.87 1012.71 1013.43 1014.27 1014.48 1014.91 1015.32 1015.38 1015.40 1015.38 1015.59 1015.90 1016.01 1016.63 1016.85 1017.01 1017.06 1017.39 1018.34 1018.33 1018.82 1019.47 1020.11 1019.93 1020.36 1020.16 1020.04 1019.60 1018.55 1017.44 1016.88 1018.03 1018.46 1018.11 1018.08 1018.16 1018.46 1019.02 1019.44 1019.29 1019.61
1009.18 1010.15 1011.14 1012.26 1012.75 1013.39 1014.16 1014.33 1014.67 1014.72 1014.63 1014.58 1015.08 1015.43 1017.12 1017.43 1017.37 1017.45 1017.71 1018.02 1018.31 1019.02 1018.95 1019.31 1020.01 1020.63 1020.49 1020.09 1019.52 1019.10 1019.11 1018.42 1017.36 1017.37 1018.62 1018.84 1018.65 1018.49 1018.80 1018.68 1019.26 1019.73 1020.05
1008.59 1009.41 1010.50 1011.98 1012.25 1012.51 1013.43 1013.88 1014.25 1014.77 1014.49 1014.88 1015.73 1017.24 1017.87 1017.71 1017.77 1017.92 1018.27 1018.20 1018.44 1018.83 1019.16 1019.20 1019.73 1019.49 1019.59 1019.80 1019.39 1018.67 1018.78 1018.26 1018.38 1017.68 1017.29 1018.68 1018.98 1018.98 1019.19 1019.48 1018.80 1019.10 1019.46
1008.45 1009.19 1009.82 1010.99 1011.95 1012.43 1012.91 1013.59 1013.95 1014.24 1014.78 1015.51 1016.56 1017.58 1017.52 1017.56 1017.78 1018.05 1018.19 1018.52 1018.78 1018.33 1019.09 1019.02 1019.38 1019.84 1020.07 1019.72 1019.02 1018.46 1018.33 1018.48 1018.16 1017.56 1017.38 1018.22 1018.41 1019.09 1019.23 1019.31 1019.95 1019.61 1019.38
Wind_Speed
11 13 10 11 10 11 11 12 13 14 14 14 14 13 13 12 12 11 10 9 9 9 10 10 9 8 9 10 10 9 10 10 10 10 8 8 8 10 11 11 12 14 15
14 13 12 12 12 10 12 12 12 13 14 13 13 13 12 12 12 11 10 11 11 11 11 11 10 9 10 9 10 10 10 10 11 11 11 11 11 11 10 9 6 16 15
14 14 13 11 12 12 11 11 11 12 12 12 12 12 11 12 12 12 12 11 11 11 11 11 11 9 9 10 9 9 9 8 8 9 11 8 12 11 11 9 15 16 15
12 14 12 10 12 12 12 11 11 11 10 10 11 12 12 12 12 12 11 11 10 10 11 10 11 10 9 9 8 9 7 8 7 8 5 12 13 11 11 11 14 15 15
12 13 14 12 12 11 11 11 11 11 11 12 11 11 12 13 12 12 11 11 10 10 10 10 9 9 9 9 8 7 7 6 4 9 7 5 12 12 12 12 14 14 14
11 11 15 13 12 10 11 9 10 11 11 11 10 10 11 12 11 12 11 10 10 9 8 8 8 7 6 6 6 4 4 3 9 6 6 5 7 13 11 11 10 12 14
12 12 14 11 12 12 12 11 11 10 9 10 11 11 11 11 11 10 10 9 8 8 7 7 7 7 6 5 5 4 2 3 8 5 3 5 14 11 11 10 11 10 12
12 13 14 12 12 11 12 11 11 10 10 10 9 11 10 10 9 10 8 7 6 5 5 5 4 4 4 3 4 2 1 3 9 3 6 6 14 9 10 10 11 11 11
11 10 12 12 11 11 12 12 10 10 10 10 9 10 9 8 8 8 7 6 5 4 3 3 2 2 2 2 2 3 4 4 8 4 4 5 14 12 11 10 10 11 11
10 10 10 11 13 12 13 11 10 11 10 9 8 8 7 7 7 6 4 6 3 3 3 4 4 4 5 5 4 4 5 10 7 5 4 7 13 12 11 11 10 10 10
9 9 10 11 10 10 11 11 11 10 9 9 9 8 9 9 10 11 7 4 3 4 5 6 6 6 7 11 8 6 6 3 2 4 3 13 12 12 12 11 11 10 9
13 12 9 11 11 11 8 11 10 9 9 8 7 9 8 5 4 2 6 3 4 4 6 6 6 8 11 5 7 10 8 1 4 2 2 10 12 13 12 11 11 12 11
13 10 11 10 8 11 8 8 5 6 5 5 6 6 5 4 5 6 4 6 5 4 5 6 4 5 3 5 2 2 0 4 4 3 9 10 11 13 13 12 11 12 11
14 13 13 10 9 8 5 6 7 5 6 5 7 8 4 5 4 3 2 2 2 1 2 4 3 3 6 3 5 2 6 2 1 2 10 11 12 14 14 14 13 13 13
12 12 13 12 10 9 7 6 5 5 5 6 6 7 5 5 3 3 3 4 3 3 4 4 4 3 3 6 4 3 4 2 1 2 1 12 10 12 15 16 15 15 15
12 13 13 12 11 10 8 6 5 5 5 5 6 7 8 5 4 4 4 4 4 4 5 4 4 5 5 5 2 1 3 1 4 4 3 7 14 12 13 15 15 16 16
11 13 13 13 13 11 10 9 8 7 7 6 6 5 6 6 6 6 5 4 5 4 4 4 4 5 5 4 5 4 5 4 3 4 5 4 9 16 14 15 15 16 16
10 11 12 12 15 14 11 9 8 7 6 6 6 6 8 7 6 5 5 4 2 3 3 3 4 5 5 5 4 4 4 5 4 5 5 6 5 5 13 14 14 14 14
12 12 12 12 14 15 13 10 10 9 8 7 7 7 8 7 6 6 5 3 2 4 3 4 2 4 4 4 7 2 2 5 6 5 3 5 5 6 6 17 14 12 14
13 13 14 12 12 12 10 10 9 8 8 6 6 7 6 7 7 6 5 4 4 3 3 4 6 7 7 5 9 6 5 3 3 3 3 3 4 5 5 5 9 11 14
15 15 14 15 13 11 10 11 9 9 8 7 7 7 6 7 6 6 6 6 4 3 4 5 4 6 7 11 10 9 4 2 3 4 3 5 7 9 9 5 5 5 6
17 16 15 15 15 13 11 10 9 8 8 7 7 6 7 6 6 6 6 6 3 2 3 5 5 3 2 4 4 12 8 3 4 6 5 3 7 5 6 8 8 9 11
18 19 18 18 16 15 14 9 8 6 5 6 6 7 6 5 6 6 5 3 3 2 1 5 5 6 6 6 8 4 4 4 2 4 6 5 6 5 7 8 9 10 10
20 18 18 15 16 16 16 12 12 10 9 9 8 4 5 7 8 5 4 5 4 1 4 3 3 3 13 12 6 5 4 6 6 4 4 5 6 7 6 6 8 10 10
16 16 16 16 18 16 15 15 12 12 8 7 2 7 5 5 6 7 5 4 2 3 6 2 3 6 8 6 7 4 4 2 3 5 3 5 4 5 6 6 6 7 7
8 11 13 12 12 13 15 16 12 10 9 4 3 3 2 4 5 6 6 3 3 6 6 6 7 4 4 8 6 4 4 2 3 5 4 6 4 6 5 5 4 4 3
Wind_Direction
155 136 158 150 137 133 129 123 120 132 132 130 131 131 130 136 136 131 129 133 121 112 115 117 116 114 114 113 113 112 108 105 105 104 120 137 142 134 141 138 155 110 118
148 138 159 153 139 137 134 127 128 132 133 132 132 138 140 144 136 130 127 124 116 111 116 119 122 114 110 111 110 108 105 104 111 112 125 136 131 133 133 158 152 114 122
150 137 163 153 142 138 131 132 132 140 140 142 140 146 137 138 135 134 135 126 125 123 124 117 110 111 109 104 108 107 103 109 121 144 158 148 121 130 142 130 119 130 126
147 138 149 144 140 141 141 141 138 132 135 137 139 140 142 141 136 133 129 121 114 116 122 121 115 118 117 115 120 116 111 111 132 187 163 137 120 133 134 127 127 130 131
148 144 119 144 140 140 145 140 138 133 143 139 142 138 144 137 134 138 126 118 126 129 125 124 120 122 117 121 131 121 114 129 180 216 117 138 123 123 132 132 135 139 157
144 138 130 150 146 150 132 141 130 142 138 128 130 139 137 134 135 125 133 131 125 120 125 130 131 131 127 127 133 146 156 186 247 85 130 116 109 132 147 157 136 125 126
148 134 144 150 148 144 140 135 140 136 136 136 145 141 141 137 138 138 128 129 126 136 142 147 145 142 140 140 146 150 182 228 278 153 103 182 102 147 152 144 142 146 143
151 147 134 142 140 134 135 144 140 138 134 132 151 141 140 141 136 127 132 134 143 152 161 162 158 156 162 156 147 140 161 283 214 107 170 176 122 158 165 161 156 155 165
148 146 147 151 146 147 154 143 146 147 150 149 145 141 143 138 140 143 147 157 166 179 193 207 215 227 250 256 233 199 201 271 275 144 198 177 143 172 178 181 177 171 174
159 154 155 129 172 168 156 149 149 151 155 149 147 146 154 156 157 161 177 182 200 234 268 283 288 292 286 273 257 237 230 248 277 153 203 107 150 183 189 186 190 195 189
173 161 169 164 162 160 157 154 165 170 164 163 166 170 182 191 176 158 118 108 260 291 300 301 305 310 295 253 227 239 242 279 286 220 197 122 158 191 197 196 197 200 202
175 173 178 174 167 171 174 148 182 169 184 185 181 172 215 182 166 295 108 175 265 305 290 289 289 290 260 268 176 193 232 154 233 172 76 137 175 196 208 201 204 203 208
177 174 182 180 173 181 176 176 176 181 163 171 188 206 211 183 181 204 174 195 202 166 265 210 242 251 310 304 306 314 323 206 226 187 107 158 191 201 208 211 213 205 214
179 183 179 180 175 211 174 203 186 187 183 194 184 196 205 218 196 254 205 227 270 223 3 250 290 337 290 299 312 359 258 252 142 249 134 172 195 203 210 211 211 210 217
181 187 185 175 187 188 199 194 226 212 195 192 177 182 220 233 223 221 238 272 279 257 277 266 258 286 303 268 278 277 295 338 291 279 299 168 210 216 215 214 214 213 216
180 183 184 185 184 193 194 202 208 216 179 202 190 184 207 224 201 244 229 242 255 268 298 302 305 304 295 303 276 330 320 36 327 330 295 173 189 211 227 225 215 216 216
179 182 183 191 188 192 194 192 204 191 196 195 206 199 219 226 206 251 240 251 261 289 284 265 276 259 267 266 239 265 284 331 339 334 299 294 182 194 212 226 223 220 218
189 183 192 189 184 186 193 193 200 195 206 204 206 200 204 227 246 226 240 251 290 265 256 297 306 313 308 315 329 320 330 299 7 296 318 338 334 293 189 214 222 225 226
192 181 191 196 190 183 186 195 204 199 215 201 209 210 189 214 227 245 265 290 249 253 263 314 327 314 307 299 278 230 342 320 319 358 357 321 4 297 288 172 205 219 226
188 189 189 192 203 192 185 200 200 208 220 218 216 231 204 209 207 222 243 254 257 275 264 344 352 350 308 322 309 313 303 315 326 349 349 325 12 340 333 330 194 203 208
196 194 195 193 192 193 197 197 203 208 209 214 218 228 240 238 222 219 241 227 221 259 38 52 14 346 320 342 330 278 212 238 1 35 7 38 47 14 24 13 308 16 130
202 199 201 200 193 198 200 208 214 215 222 225 218 219 224 231 243 241 259 278 302 91 118 86 52 27 288 344 305 312 300 184 146 27 18 36 65 70 67 47 33 77 82
207 200 204 202 195 200 212 200 202 234 245 214 215 217 206 234 244 258 271 297 108 206 30 20 24 350 291 283 237 238 273 271 199 57 39 48 56 60 80 84 74 69 76
210 205 208 197 199 198 197 204 210 221 227 223 232 80 66 30 36 36 81 111 121 41 2 74 234 258 283 261 240 231 255 270 261 167 86 64 111 92 67 84 97 102 104
215 212 203 205 210 202 196 216 203 223 237 245 114 105 123 93 81 93 101 131 54 352 312 332 271 257 243 269 247 215 224 224 335 299 167 134 117 94 76 28 65 105 107
214 211 206 204 206 206 199 202 218 214 226 131 112 142 157 122 111 87 89 110 82 53 329 270 243 234 253 251 251 229 208 185 204 221 218 175 155 102 84 93 112 107 102